Location: *
(50.2903°S, 172.5375°W)
Time: 16:24:12
(UTC+00:00)

Cosmos 1300 - Pass Details

Date: 17 November 2019
Orbit: 512 x 514 km, 82.5° (Epoch: 07 December)

Event Time Altitude Azimuth Distance (km) Brightness Sun altitude
Exits shadow 14:40:38 - 358° (N) 2,640 5.9 -7.3°
Rises 14:40:39 0° 358° (N) 2,635 5.9 -7.3°
Reaches altitude 10° 14:42:46 10° 1° (N) 1,757 5.0 -7.0°
Maximum altitude 14:46:36 68° 83° (E) 573 3.1 -6.5°
Drops below altitude 10° 14:50:29 10° 165° (SSE) 1,785 6.4 -6.1°
Sets 14:52:40 0° 167° (SSE) 2,682 7.3 -5.8°
